Time,TemperatureF,DewpointF,PressureIn,WindDirection,WindDirectionDegrees,WindSpeedMPH,WindSpeedGustMPH,Humidity,HourlyPrecipIn,Conditions,Clouds,dailyrainin,SolarRadiationWatts/m^2,SoftwareType,DateUTC
2013-06-20 00:02:00,49.1,40.1,29.68,East,96,25.0,26.0,71,0.00,,,0.02,0,Wunderground v.1.15,2013-06-20 06:02:00,
2013-06-20 00:08:00,48.8,40.5,29.68,ENE,77,23.0,26.0,73,0.00,,,0.02,0,Wunderground v.1.15,2013-06-20 06:08:00,
2013-06-20 00:14:00,48.9,40.6,29.69,ENE,74,22.0,24.0,73,0.00,,,0.02,0,Wunderground v.1.15,2013-06-20 06:14:00,
2013-06-20 00:20:00,48.6,40.3,29.68,East,96,21.0,24.0,73,0.00,,,0.02,0,Wunderground v.1.15,2013-06-20 06:20:00,
2013-06-20 00:26:00,48.7,41.1,29.68,East,86,22.0,24.0,75,0.00,,,0.02,0,Wunderground v.1.15,2013-06-20 06:26:00,
2013-06-20 00:32:00,48.4,40.5,29.68,East,87,22.0,24.0,74,0.00,,,0.02,0,Wunderground v.1.15,2013-06-20 06:32:00,
2013-06-20 00:38:00,48.4,40.8,29.68,East,81,22.0,28.0,75,0.00,,,0.02,0,Wunderground v.1.15,2013-06-20 06:38:00,
2013-06-20 00:44:00,48.3,40.7,29.67,East,87,24.0,27.0,75,0.00,,,0.02,0,Wunderground v.1.15,2013-06-20 06:44:00,
2013-06-20 00:50:00,47.9,40.0,29.67,ESE,106,24.0,24.0,74,0.00,,,0.02,0,Wunderground v.1.15,2013-06-20 06:50:00,
2013-06-20 00:58:00,47.9,41.4,29.67,East,100,22.0,24.0,78,0.00,,,0.02,0,Wunderground v.1.15,2013-06-20 06:58:00,
2013-06-20 01:04:00,47.7,40.2,29.67,East,81,21.0,24.0,75,0.00,,,0.02,0,Wunderground v.1.15,2013-06-20 07:04:00,
2013-06-20 01:10:00,47.9,40.7,29.68,East,83,21.0,21.0,76,0.00,,,0.02,0,Wunderground v.1.15,2013-06-20 07:10:00,
2013-06-20 01:16:00,48.1,40.5,29.68,East,92,21.0,25.0,75,0.00,,,0.02,0,Wunderground v.1.15,2013-06-20 07:16:00,
2013-06-20 01:22:00,48.1,40.5,29.68,East,85,20.0,24.0,75,0.00,,,0.02,0,Wunderground v.1.15,2013-06-20 07:22:00,
2013-06-20 01:28:00,48.2,40.3,29.68,East,93,21.0,24.0,74,0.00,,,0.02,0,Wunderground v.1.15,2013-06-20 07:28:00,
2013-06-20 01:34:00,48.1,40.5,29.69,East,85,20.0,24.0,75,0.00,,,0.02,0,Wunderground v.1.15,2013-06-20 07:34:00,
2013-06-20 01:44:00,48.0,40.5,29.67,East,87,21.0,24.0,75,0.00,,,0.02,0,Wunderground v.1.15,2013-06-20 07:44:00,
2013-06-20 01:50:00,48.1,40.5,29.68,East,81,23.0,26.0,75,0.00,,,0.02,0,Wunderground v.1.15,2013-06-20 07:50:00,
2013-06-20 01:56:00,48.3,40.7,29.69,East,95,23.0,26.0,75,0.00,,,0.02,0,Wunderground v.1.15,2013-06-20 07:56:00,
2013-06-20 02:02:00,48.3,40.4,29.68,East,85,23.0,29.0,74,0.00,,,0.02,0,Wunderground v.1.15,2013-06-20 08:02:00,
2013-06-20 02:08:00,48.5,40.9,29.69,East,83,24.0,29.0,75,0.00,,,0.02,0,Wunderground v.1.15,2013-06-20 08:08:00,
2013-06-20 02:16:00,48.4,40.5,29.68,East,93,22.0,29.0,74,0.00,,,0.02,0,Wunderground v.1.15,2013-06-20 08:16:00,
2013-06-20 02:22:00,48.4,40.8,29.69,East,89,22.0,29.0,75,0.00,,,0.02,0,Wunderground v.1.15,2013-06-20 08:22:00,
2013-06-20 02:28:00,48.5,39.9,29.70,ESE,106,22.0,29.0,72,0.00,,,0.02,0,Wunderground v.1.15,2013-06-20 08:28:00,
2013-06-20 02:34:00,48.6,39.6,29.69,East,85,22.0,29.0,71,0.00,,,0.02,0,Wunderground v.1.15,2013-06-20 08:34:00,
2013-06-20 02:40:00,48.4,40.1,29.70,East,99,22.0,22.0,73,0.00,,,0.02,0,Wunderground v.1.15,2013-06-20 08:40:00,
2013-06-20 02:46:00,48.5,41.3,29.69,East,91,23.0,29.0,76,0.00,,,0.02,0,Wunderground v.1.15,2013-06-20 08:46:00,
2013-06-20 02:52:00,48.3,39.7,29.69,East,95,22.0,29.0,72,0.00,,,0.02,0,Wunderground v.1.15,2013-06-20 08:52:00,
2013-06-20 02:58:00,48.3,39.7,29.69,ESE,102,22.0,29.0,72,0.00,,,0.02,0,Wunderground v.1.15,2013-06-20 08:58:00,
2013-06-20 03:04:00,48.3,39.7,29.69,ESE,105,21.0,29.0,72,0.00,,,0.02,0,Wunderground v.1.15,2013-06-20 09:04:00,
2013-06-20 03:10:00,48.5,40.9,29.69,East,83,20.0,20.0,75,0.00,,,0.02,0,Wunderground v.1.15,2013-06-20 09:10:00,
2013-06-20 03:16:00,48.5,39.9,29.69,East,100,20.0,29.0,72,0.00,,,0.02,0,Wunderground v.1.15,2013-06-20 09:16:00,
2013-06-20 03:22:00,48.3,39.3,29.69,East,100,22.0,29.0,71,0.00,,,0.02,0,Wunderground v.1.15,2013-06-20 09:22:00,
2013-06-20 03:28:00,48.2,39.6,29.69,ESE,120,22.0,29.0,72,0.00,,,0.02,0,Wunderground v.1.15,2013-06-20 09:28:00,
2013-06-20 03:34:00,48.2,40.6,29.70,ESE,108,20.0,29.0,75,0.00,,,0.02,0,Wunderground v.1.15,2013-06-20 09:34:00,
2013-06-20 03:40:00,48.3,40.7,29.69,ESE,116,20.0,29.0,75,0.00,,,0.02,0,Wunderground v.1.15,2013-06-20 09:40:00,
2013-06-20 03:46:00,48.1,39.9,29.69,ESE,102,22.0,29.0,73,0.00,,,0.02,0,Wunderground v.1.15,2013-06-20 09:46:00,
2013-06-20 03:54:00,48.1,39.5,29.69,ESE,120,23.0,29.0,72,0.00,,,0.02,0,Wunderground v.1.15,2013-06-20 09:54:00,
2013-06-20 04:00:00,47.9,39.7,29.68,ESE,116,25.0,25.0,73,0.00,,,0.02,0,Wunderground v.1.15,2013-06-20 10:00:00,
2013-06-20 04:06:00,47.8,39.6,29.68,East,85,24.0,29.0,73,0.00,,,0.02,0,Wunderground v.1.15,2013-06-20 10:06:00,
2013-06-20 04:12:00,47.7,39.8,29.68,ESE,109,24.0,29.0,74,0.00,,,0.02,0,Wunderground v.1.15,2013-06-20 10:12:00,
2013-06-20 04:18:00,47.7,39.8,29.67,East,98,26.0,31.0,74,0.00,,,0.02,0,Wunderground v.1.15,2013-06-20 10:18:00,
2013-06-20 04:24:00,47.7,39.8,29.67,East,93,28.0,33.0,74,0.00,,,0.02,0,Wunderground v.1.15,2013-06-20 10:24:00,
2013-06-20 04:30:00,47.7,40.2,29.67,ESE,105,27.0,29.0,75,0.00,,,0.02,0,Wunderground v.1.15,2013-06-20 10:30:00,
2013-06-20 04:36:00,47.3,39.4,29.67,ESE,108,26.0,29.0,74,0.00,,,0.02,0,Wunderground v.1.15,2013-06-20 10:36:00,
2013-06-20 04:42:00,47.4,39.2,29.67,East,87,25.0,29.0,73,0.00,,,0.02,0,Wunderground v.1.15,2013-06-20 10:42:00,
2013-06-20 04:48:00,47.4,39.2,29.67,East,81,23.0,30.0,73,0.00,,,0.02,0,Wunderground v.1.15,2013-06-20 10:48:00,
2013-06-20 04:54:00,47.3,39.8,29.67,East,100,24.0,29.0,75,0.00,,,0.02,0,Wunderground v.1.15,2013-06-20 10:54:00,
2013-06-20 05:00:00,46.9,38.7,29.68,East,83,22.0,29.0,73,0.00,,,0.02,0,Wunderground v.1.15,2013-06-20 11:00:00,
2013-06-20 05:06:00,47.1,38.9,29.67,East,87,23.0,29.0,73,0.00,,,0.02,0,Wunderground v.1.15,2013-06-20 11:06:00,
2013-06-20 05:14:00,47.3,40.5,29.69,East,96,22.0,29.0,77,0.00,,,0.02,0,Wunderground v.1.15,2013-06-20 11:14:00,
2013-06-20 05:20:00,46.9,38.3,29.70,East,83,21.0,21.0,72,0.00,,,0.02,0,Wunderground v.1.15,2013-06-20 11:20:00,
2013-06-20 05:26:00,47.0,39.1,29.69,East,90,20.0,29.0,74,0.00,,,0.02,0,Wunderground v.1.15,2013-06-20 11:26:00,
2013-06-20 05:32:00,47.1,38.5,29.70,East,94,18.0,29.0,72,0.00,,,0.02,0,Wunderground v.1.15,2013-06-20 11:32:00,
2013-06-20 05:38:00,47.2,38.6,29.70,ESE,105,18.0,29.0,72,0.00,,,0.02,0,Wunderground v.1.15,2013-06-20 11:38:00,
2013-06-20 05:44:00,47.6,38.3,29.70,ESE,102,21.0,29.0,70,0.00,,,0.02,0,Wunderground v.1.15,2013-06-20 11:44:00,
2013-06-20 05:52:00,47.6,38.7,29.70,East,87,21.0,29.0,71,0.00,,,0.02,5,Wunderground v.1.15,2013-06-20 11:52:00,
2013-06-20 06:02:00,47.6,37.9,29.71,ESE,102,20.0,26.0,69,0.00,,,0.02,11,Wunderground v.1.15,2013-06-20 12:02:00,
2013-06-20 06:08:00,47.5,39.3,29.72,East,89,19.0,26.0,73,0.00,,,0.02,16,Wunderground v.1.15,2013-06-20 12:08:00,
2013-06-20 06:14:00,47.4,39.2,29.72,ESE,105,18.0,26.0,73,0.00,,,0.02,21,Wunderground v.1.15,2013-06-20 12:14:00,
2013-06-20 06:20:00,47.4,38.8,29.72,East,92,18.0,26.0,72,0.00,,,0.02,26,Wunderground v.1.15,2013-06-20 12:20:00,
2013-06-20 06:26:00,47.4,38.8,29.71,East,91,20.0,26.0,72,0.00,,,0.02,32,Wunderground v.1.15,2013-06-20 12:26:00,
2013-06-20 06:32:00,47.5,39.3,29.71,East,94,21.0,26.0,73,0.00,,,0.02,33,Wunderground v.1.15,2013-06-20 12:32:00,
2013-06-20 06:38:00,47.6,39.0,29.72,East,92,20.0,26.0,72,0.00,,,0.02,33,Wunderground v.1.15,2013-06-20 12:38:00,
2013-06-20 06:44:00,47.7,39.1,29.72,East,84,18.0,26.0,72,0.00,,,0.02,35,Wunderground v.1.15,2013-06-20 12:44:00,
2013-06-20 06:50:00,47.8,39.2,29.72,ESE,109,18.0,27.0,72,0.00,,,0.02,35,Wunderground v.1.15,2013-06-20 12:50:00,
2013-06-20 06:56:00,48.0,40.1,29.73,East,97,19.0,27.0,74,0.00,,,0.02,42,Wunderground v.1.15,2013-06-20 12:56:00,
2013-06-20 07:02:00,48.0,39.4,29.73,ESE,108,19.0,22.0,72,0.00,,,0.02,40,Wunderground v.1.15,2013-06-20 13:02:00,
2013-06-20 07:08:00,47.9,39.3,29.73,ESE,105,21.0,26.0,72,0.00,,,0.02,40,Wunderground v.1.15,2013-06-20 13:08:00,
2013-06-20 07:14:00,48.0,39.4,29.73,East,98,20.0,26.0,72,0.00,,,0.02,37,Wunderground v.1.15,2013-06-20 13:14:00,
2013-06-20 07:20:00,48.1,39.9,29.74,East,93,18.0,18.0,73,0.00,,,0.02,35,Wunderground v.1.15,2013-06-20 13:20:00,
2013-06-20 07:26:00,48.0,39.0,29.74,East,101,19.0,26.0,71,0.00,,,0.02,35,Wunderground v.1.15,2013-06-20 13:26:00,
2013-06-20 07:32:00,48.1,38.8,29.75,ESE,119,20.0,26.0,70,0.00,,,0.02,37,Wunderground v.1.15,2013-06-20 13:32:00,
2013-06-20 07:40:00,47.9,38.9,29.75,ESE,118,19.0,19.0,71,0.00,,,0.02,46,Wunderground v.1.15,2013-06-20 13:40:00,
2013-06-20 07:46:00,48.1,39.5,29.75,SE,126,20.0,26.0,72,0.00,,,0.02,51,Wunderground v.1.15,2013-06-20 13:46:00,
2013-06-20 07:52:00,48.0,38.7,29.75,ESE,121,22.0,26.0,70,0.00,,,0.02,60,Wunderground v.1.15,2013-06-20 13:52:00,
2013-06-20 07:58:00,47.8,38.5,29.76,ESE,117,21.0,26.0,70,0.00,,,0.02,60,Wunderground v.1.15,2013-06-20 13:58:00,
2013-06-20 08:04:00,47.9,39.7,29.76,ESE,112,20.0,26.0,73,0.00,,,0.02,58,Wunderground v.1.15,2013-06-20 14:04:00,
2013-06-20 08:10:00,47.9,39.7,29.76,ESE,108,20.0,26.0,73,0.00,,,0.02,60,Wunderground v.1.15,2013-06-20 14:10:00,
2013-06-20 08:16:00,48.0,40.8,29.76,ESE,113,20.0,26.0,76,0.00,,,0.02,65,Wunderground v.1.15,2013-06-20 14:16:00,
2013-06-20 08:22:00,48.0,40.1,29.76,ESE,110,20.0,21.0,74,0.00,,,0.02,65,Wunderground v.1.15,2013-06-20 14:22:00,
2013-06-20 08:28:00,48.0,39.8,29.76,ESE,106,21.0,28.0,73,0.00,,,0.02,72,Wunderground v.1.15,2013-06-20 14:28:00,
2013-06-20 08:34:00,47.9,40.0,29.76,ESE,104,23.0,26.0,74,0.00,,,0.02,76,Wunderground v.1.15,2013-06-20 14:34:00,
2013-06-20 08:40:00,47.9,39.3,29.77,ESE,112,23.0,23.0,72,0.00,,,0.02,83,Wunderground v.1.15,2013-06-20 14:40:00,
2013-06-20 08:46:00,47.9,38.9,29.77,ESE,106,22.0,26.0,71,0.00,,,0.02,81,Wunderground v.1.15,2013-06-20 14:46:00,
2013-06-20 08:52:00,48.1,40.5,29.78,ESE,105,21.0,26.0,75,0.00,,,0.02,100,Wunderground v.1.15,2013-06-20 14:52:00,
2013-06-20 09:02:00,48.2,39.2,29.78,ESE,102,22.0,26.0,71,0.00,,,0.02,104,Wunderground v.1.15,2013-06-20 15:02:00,
2013-06-20 09:10:00,48.4,40.1,29.78,SE,125,23.0,23.0,73,0.00,,,0.02,137,Wunderground v.1.15,2013-06-20 15:10:00,
2013-06-20 09:16:00,48.2,39.9,29.78,ESE,102,25.0,27.0,73,0.00,,,0.02,132,Wunderground v.1.15,2013-06-20 15:16:00,
2013-06-20 09:22:00,48.3,40.0,29.78,ESE,104,25.0,26.0,73,0.00,,,0.02,111,Wunderground v.1.15,2013-06-20 15:22:00,
2013-06-20 09:28:00,48.1,39.9,29.79,ESE,107,25.0,26.0,73,0.00,,,0.02,123,Wunderground v.1.15,2013-06-20 15:28:00,
2013-06-20 09:34:00,48.2,40.3,29.80,ESE,110,24.0,26.0,74,0.00,,,0.02,128,Wunderground v.1.15,2013-06-20 15:34:00,
2013-06-20 09:40:00,48.1,40.2,29.79,ESE,112,23.0,27.0,74,0.00,,,0.02,123,Wunderground v.1.15,2013-06-20 15:40:00,
2013-06-20 09:46:00,48.1,40.9,29.80,ESE,102,25.0,27.0,76,0.00,,,0.02,127,Wunderground v.1.15,2013-06-20 15:46:00,
2013-06-20 09:52:00,47.9,40.7,29.80,East,101,24.0,26.0,76,0.00,,,0.02,141,Wunderground v.1.15,2013-06-20 15:52:00,
2013-06-20 09:58:00,47.9,41.0,29.81,East,94,22.0,26.0,77,0.00,,,0.02,153,Wunderground v.1.15,2013-06-20 15:58:00,
2013-06-20 10:04:00,48.1,40.5,29.81,East,84,22.0,26.0,75,0.00,,,0.02,163,Wunderground v.1.15,2013-06-20 16:04:00,
2013-06-20 10:10:00,48.1,39.9,29.81,East,84,21.0,21.0,73,0.00,,,0.02,202,Wunderground v.1.15,2013-06-20 16:10:00,
2013-06-20 10:16:00,48.4,40.5,29.81,East,85,21.0,26.0,74,0.00,,,0.02,230,Wunderground v.1.15,2013-06-20 16:16:00,
2013-06-20 10:22:00,48.5,39.9,29.81,East,100,22.0,26.0,72,0.00,,,0.02,251,Wunderground v.1.15,2013-06-20 16:22:00,
2013-06-20 10:28:00,48.8,39.8,29.81,East,91,22.0,26.0,71,0.00,,,0.02,258,Wunderground v.1.15,2013-06-20 16:28:00,
2013-06-20 10:34:00,49.0,40.0,29.82,East,96,22.0,26.0,71,0.00,,,0.02,267,Wunderground v.1.15,2013-06-20 16:34:00,
2013-06-20 10:40:00,49.2,40.2,29.81,ESE,113,23.0,26.0,71,0.00,,,0.02,288,Wunderground v.1.15,2013-06-20 16:40:00,
2013-06-20 10:46:00,49.7,41.7,29.82,ESE,102,24.0,30.0,74,0.00,,,0.02,336,Wunderground v.1.15,2013-06-20 16:46:00,
2013-06-20 10:52:00,49.4,40.0,29.81,East,98,26.0,26.0,70,0.00,,,0.02,373,Wunderground v.1.15,2013-06-20 16:52:00,
2013-06-20 10:58:00,49.4,40.0,29.82,East,95,25.0,27.0,70,0.00,,,0.02,431,Wunderground v.1.15,2013-06-20 16:58:00,
2013-06-20 11:04:00,49.5,40.1,29.82,ESE,105,24.0,36.0,70,0.00,,,0.02,468,Wunderground v.1.15,2013-06-20 17:04:00,
2013-06-20 11:10:00,49.6,39.5,29.82,East,80,24.0,36.0,68,0.00,,,0.02,506,Wunderground v.1.15,2013-06-20 17:10:00,
2013-06-20 11:16:00,50.3,40.5,29.82,East,100,22.0,36.0,69,0.00,,,0.02,561,Wunderground v.1.15,2013-06-20 17:16:00,
2013-06-20 11:22:00,50.4,40.6,29.81,ESE,104,23.0,36.0,69,0.00,,,0.02,543,Wunderground v.1.15,2013-06-20 17:22:00,
2013-06-20 11:28:00,50.9,40.7,29.81,East,101,23.0,36.0,68,0.00,,,0.02,631,Wunderground v.1.15,2013-06-20 17:28:00,
2013-06-20 11:36:00,51.1,39.3,29.81,East,92,27.0,36.0,64,0.00,,,0.02,680,Wunderground v.1.15,2013-06-20 17:36:00,
2013-06-20 11:42:00,51.4,40.0,29.82,East,87,26.0,36.0,65,0.00,,,0.02,742,Wunderground v.1.15,2013-06-20 17:42:00,
2013-06-20 11:48:00,51.5,40.1,29.81,ESE,103,25.0,36.0,65,0.00,,,0.02,673,Wunderground v.1.15,2013-06-20 17:48:00,
2013-06-20 11:54:00,50.9,40.3,29.81,ESE,106,25.0,36.0,67,0.00,,,0.02,350,Wunderground v.1.15,2013-06-20 17:54:00,
2013-06-20 12:00:00,50.4,38.3,29.82,East,98,28.0,28.0,63,0.00,,,0.02,671,Wunderground v.1.15,2013-06-20 18:00:00,
2013-06-20 12:06:00,51.0,38.8,29.82,ESE,110,28.0,36.0,63,0.00,,,0.02,821,Wunderground v.1.15,2013-06-20 18:06:00,
2013-06-20 12:12:00,50.9,40.3,29.82,East,100,28.0,36.0,67,0.00,,,0.02,519,Wunderground v.1.15,2013-06-20 18:12:00,
2013-06-20 12:18:00,51.0,39.6,29.83,ESE,102,27.0,36.0,65,0.00,,,0.02,462,Wunderground v.1.15,2013-06-20 18:18:00,
2013-06-20 12:24:00,51.2,41.0,29.83,East,98,25.0,36.0,68,0.00,,,0.02,432,Wunderground v.1.15,2013-06-20 18:24:00,
2013-06-20 12:30:00,51.1,40.9,29.83,East,97,23.0,23.0,68,0.00,,,0.02,663,Wunderground v.1.15,2013-06-20 18:30:00,
2013-06-20 12:36:00,51.4,40.0,29.82,East,95,23.0,36.0,65,0.00,,,0.02,617,Wunderground v.1.15,2013-06-20 18:36:00,
2013-06-20 12:42:00,52.3,39.7,29.82,East,98,25.0,36.0,62,0.00,,,0.02,657,Wunderground v.1.15,2013-06-20 18:42:00,
2013-06-20 12:48:00,52.9,39.8,29.82,East,100,29.0,38.0,61,0.00,,,0.02,357,Wunderground v.1.15,2013-06-20 18:48:00,
2013-06-20 12:54:00,52.1,39.1,29.82,East,94,32.0,40.0,61,0.00,,,0.02,265,Wunderground v.1.15,2013-06-20 18:54:00,
2013-06-20 13:00:00,50.9,41.1,29.84,East,89,32.0,32.0,69,0.00,,,0.02,202,Wunderground v.1.15,2013-06-20 19:00:00,
2013-06-20 13:06:00,50.3,39.8,29.83,East,89,27.0,36.0,67,0.00,,,0.02,214,Wunderground v.1.15,2013-06-20 19:06:00,
2013-06-20 13:12:00,50.6,39.7,29.84,ESE,102,25.0,26.0,66,0.00,,,0.02,330,Wunderground v.1.15,2013-06-20 19:12:00,
2013-06-20 13:18:00,51.0,39.6,29.85,East,92,24.0,36.0,65,0.00,,,0.02,385,Wunderground v.1.15,2013-06-20 19:18:00,
2013-06-20 13:24:00,51.5,38.9,29.85,East,88,20.0,36.0,62,0.00,,,0.02,438,Wunderground v.1.15,2013-06-20 19:24:00,
2013-06-20 13:30:00,51.8,38.8,29.84,ENE,77,20.0,36.0,61,0.00,,,0.02,360,Wunderground v.1.15,2013-06-20 19:30:00,
2013-06-20 13:36:00,52.4,40.6,29.85,ENE,69,19.0,36.0,64,0.00,,,0.02,436,Wunderground v.1.15,2013-06-20 19:36:00,
2013-06-20 13:42:00,53.3,38.9,29.85,East,92,18.0,36.0,58,0.00,,,0.02,1129,Wunderground v.1.15,2013-06-20 19:42:00,
2013-06-20 13:48:00,53.7,37.9,29.85,East,82,18.0,36.0,55,0.00,,,0.02,369,Wunderground v.1.15,2013-06-20 19:48:00,
2013-06-20 13:54:00,54.1,38.7,29.86,ENE,70,20.0,36.0,56,0.00,,,0.02,1157,Wunderground v.1.15,2013-06-20 19:54:00,
2013-06-20 14:00:00,54.0,40.0,29.84,ESE,106,22.0,36.0,59,0.00,,,0.02,633,Wunderground v.1.15,2013-06-20 20:00:00,
2013-06-20 14:06:00,52.1,41.5,29.86,SE,127,25.0,36.0,67,0.00,,,0.02,183,Wunderground v.1.15,2013-06-20 20:06:00,
2013-06-20 14:12:00,51.3,39.5,29.86,East,99,23.0,36.0,64,0.00,,,0.02,153,Wunderground v.1.15,2013-06-20 20:12:00,
2013-06-20 14:18:00,51.1,39.3,29.87,East,100,19.0,36.0,64,0.00,,,0.02,211,Wunderground v.1.15,2013-06-20 20:18:00,
2013-06-20 14:24:00,51.6,39.0,29.87,East,100,15.0,36.0,62,0.00,,,0.02,401,Wunderground v.1.15,2013-06-20 20:24:00,
2013-06-20 14:30:00,52.2,39.6,29.87,East,100,12.0,12.0,62,0.00,,,0.02,348,Wunderground v.1.15,2013-06-20 20:30:00,
2013-06-20 14:36:00,53.7,39.3,29.86,East,94,11.0,36.0,58,0.00,,,0.02,1181,Wunderground v.1.15,2013-06-20 20:36:00,
2013-06-20 14:42:00,54.4,40.8,29.86,SSE,155,12.0,17.0,60,0.00,,,0.02,461,Wunderground v.1.15,2013-06-20 20:42:00,
2013-06-20 14:48:00,55.1,38.3,29.87,SSE,166,13.0,36.0,53,0.00,,,0.02,320,Wunderground v.1.15,2013-06-20 20:48:00,
2013-06-20 14:54:00,55.2,38.4,29.86,SE,141,15.0,36.0,53,0.00,,,0.02,336,Wunderground v.1.15,2013-06-20 20:54:00,
2013-06-20 15:00:00,55.2,38.8,29.86,SE,140,16.0,20.0,54,0.00,,,0.02,383,Wunderground v.1.15,2013-06-20 21:00:00,
2013-06-20 15:08:00,55.6,39.2,29.86,ESE,118,13.0,20.0,54,0.00,,,0.02,466,Wunderground v.1.15,2013-06-20 21:08:00,
2013-06-20 15:14:00,55.8,35.3,29.85,ESE,106,16.0,20.0,46,0.00,,,0.02,469,Wunderground v.1.15,2013-06-20 21:14:00,
2013-06-20 15:20:00,55.8,36.9,29.85,ESE,104,23.0,24.0,49,0.00,,,0.02,262,Wunderground v.1.15,2013-06-20 21:20:00,
2013-06-20 15:26:00,55.5,39.6,29.85,ESE,108,22.0,26.0,55,0.00,,,0.02,308,Wunderground v.1.15,2013-06-20 21:26:00,
2013-06-20 15:32:00,55.7,38.3,29.85,ESE,110,22.0,23.0,52,0.00,,,0.02,1071,Wunderground v.1.15,2013-06-20 21:32:00,
2013-06-20 15:42:00,56.5,37.0,29.85,ESE,120,23.0,23.0,48,0.00,,,0.02,406,Wunderground v.1.15,2013-06-20 21:42:00,
2013-06-20 15:48:00,56.9,38.4,29.85,ESE,110,23.0,24.0,50,0.00,,,0.02,1055,Wunderground v.1.15,2013-06-20 21:48:00,
2013-06-20 15:54:00,57.2,39.2,29.86,ESE,105,22.0,29.0,51,0.00,,,0.02,993,Wunderground v.1.15,2013-06-20 21:54:00,
2013-06-20 16:00:00,56.8,39.8,29.86,South,177,24.0,24.0,53,0.00,,,0.02,719,Wunderground v.1.15,2013-06-20 22:00:00,
2013-06-20 16:06:00,55.4,39.5,29.87,SSE,166,23.0,24.0,55,0.00,,,0.02,301,Wunderground v.1.15,2013-06-20 22:06:00,
2013-06-20 16:12:00,55.3,38.9,29.87,South,182,18.0,20.0,54,0.00,,,0.02,1085,Wunderground v.1.15,2013-06-20 22:12:00,
2013-06-20 16:18:00,55.7,39.3,29.87,South,177,13.0,20.0,54,0.00,,,0.02,844,Wunderground v.1.15,2013-06-20 22:18:00,
2013-06-20 16:24:00,55.8,38.4,29.87,SW,221,11.0,20.0,52,0.00,,,0.02,424,Wunderground v.1.15,2013-06-20 22:24:00,
2013-06-20 16:30:00,56.4,36.9,29.87,SE,142,10.0,10.0,48,0.00,,,0.02,362,Wunderground v.1.15,2013-06-20 22:30:00,
2013-06-20 16:36:00,57.0,35.9,29.87,East,88,7.0,20.0,45,0.00,,,0.02,292,Wunderground v.1.15,2013-06-20 22:36:00,
2013-06-20 16:44:00,57.3,36.1,29.87,East,82,3.0,20.0,45,0.00,,,0.02,635,Wunderground v.1.15,2013-06-20 22:44:00,
2013-06-20 16:50:00,58.0,36.8,29.87,ENE,75,3.0,20.0,45,0.00,,,0.02,671,Wunderground v.1.15,2013-06-20 22:50:00,
2013-06-20 16:56:00,58.3,35.9,29.87,East,92,4.0,20.0,43,0.00,,,0.02,670,Wunderground v.1.15,2013-06-20 22:56:00,
2013-06-20 17:04:00,58.0,36.8,29.87,SE,129,5.0,20.0,45,0.00,,,0.02,309,Wunderground v.1.15,2013-06-20 23:04:00,
2013-06-20 17:16:00,58.2,36.4,29.86,East,93,18.0,24.0,44,0.00,,,0.02,188,Wunderground v.1.15,2013-06-20 23:16:00,
2013-06-20 17:22:00,58.3,37.0,29.86,ESE,110,20.0,23.0,45,0.00,,,0.02,248,Wunderground v.1.15,2013-06-20 23:22:00,
2013-06-20 17:28:00,58.9,37.0,29.86,ESE,105,19.0,23.0,44,0.00,,,0.02,691,Wunderground v.1.15,2013-06-20 23:28:00,
2013-06-20 17:34:00,58.9,36.4,29.86,SE,126,20.0,24.0,43,0.00,,,0.02,272,Wunderground v.1.15,2013-06-20 23:34:00,
2013-06-20 17:40:00,58.4,36.0,29.86,SE,139,22.0,22.0,43,0.00,,,0.02,239,Wunderground v.1.15,2013-06-20 23:40:00,
2013-06-20 17:46:00,58.5,37.2,29.86,East,94,18.0,22.0,45,0.00,,,0.02,415,Wunderground v.1.15,2013-06-20 23:46:00,
2013-06-20 17:54:00,59.1,38.9,29.86,East,89,15.0,20.0,47,0.00,,,0.02,564,Wunderground v.1.15,2013-06-20 23:54:00,
2013-06-20 18:02:00,59.2,36.1,29.86,ESE,113,18.0,20.0,42,0.00,,,0.02,510,Wunderground v.1.15,2013-06-21 00:02:00,
2013-06-20 18:08:00,59.1,34.1,29.87,ESE,114,17.0,20.0,39,0.00,,,0.02,501,Wunderground v.1.15,2013-06-21 00:08:00,
2013-06-20 18:14:00,58.7,36.2,29.88,SSE,164,16.0,20.0,43,0.00,,,0.02,490,Wunderground v.1.15,2013-06-21 00:14:00,
2013-06-20 18:26:00,58.2,37.5,29.88,South,187,17.0,20.0,46,0.00,,,0.02,475,Wunderground v.1.15,2013-06-21 00:26:00,
2013-06-20 18:32:00,57.2,39.2,29.88,South,177,21.0,21.0,51,0.00,,,0.02,445,Wunderground v.1.15,2013-06-21 00:32:00,
2013-06-20 18:38:00,56.7,38.3,29.89,South,179,21.0,22.0,50,0.00,,,0.02,469,Wunderground v.1.15,2013-06-21 00:38:00,
2013-06-20 18:44:00,56.5,38.6,29.88,South,186,18.0,20.0,51,0.00,,,0.02,459,Wunderground v.1.15,2013-06-21 00:44:00,
2013-06-20 18:50:00,56.6,38.7,29.88,South,185,15.0,15.0,51,0.00,,,0.02,487,Wunderground v.1.15,2013-06-21 00:50:00,
2013-06-20 18:56:00,56.8,38.3,29.88,South,188,13.0,20.0,50,0.00,,,0.02,438,Wunderground v.1.15,2013-06-21 00:56:00,
2013-06-20 19:04:00,57.2,36.0,29.87,SSE,158,13.0,20.0,45,0.00,,,0.02,424,Wunderground v.1.15,2013-06-21 01:04:00,
2013-06-20 19:14:00,57.4,36.8,29.88,South,177,13.0,20.0,46,0.00,,,0.02,390,Wunderground v.1.15,2013-06-21 01:14:00,
2013-06-20 19:20:00,57.6,35.2,29.88,South,181,12.0,12.0,43,0.00,,,0.02,345,Wunderground v.1.15,2013-06-21 01:20:00,
2013-06-20 19:26:00,58.1,35.7,29.88,South,171,9.0,20.0,43,0.00,,,0.02,299,Wunderground v.1.15,2013-06-21 01:26:00,
2013-06-20 19:32:00,58.4,34.2,29.88,SSE,165,8.0,20.0,40,0.00,,,0.02,294,Wunderground v.1.15,2013-06-21 01:32:00,
2013-06-20 19:38:00,58.4,34.2,29.88,SSW,200,9.0,20.0,40,0.00,,,0.02,287,Wunderground v.1.15,2013-06-21 01:38:00,
2013-06-20 19:44:00,58.5,36.6,29.89,SSW,193,9.0,20.0,44,0.00,,,0.02,274,Wunderground v.1.15,2013-06-21 01:44:00,
2013-06-20 19:50:00,58.5,36.6,29.89,SSW,207,10.0,10.0,44,0.00,,,0.02,267,Wunderground v.1.15,2013-06-21 01:50:00,
2013-06-20 19:56:00,58.6,35.6,29.89,SSW,196,9.0,20.0,42,0.00,,,0.02,248,Wunderground v.1.15,2013-06-21 01:56:00,
2013-06-20 20:02:00,58.6,33.7,29.90,SSE,164,8.0,14.0,39,0.00,,,0.02,225,Wunderground v.1.15,2013-06-21 02:02:00,
2013-06-20 20:08:00,58.9,34.6,29.90,South,172,6.0,14.0,40,0.00,,,0.02,202,Wunderground v.1.15,2013-06-21 02:08:00,
2013-06-20 20:14:00,58.3,35.9,29.90,NE,53,8.0,15.0,43,0.00,,,0.02,156,Wunderground v.1.15,2013-06-21 02:14:00,
2013-06-20 20:20:00,57.6,37.5,29.91,NE,37,13.0,14.0,47,0.00,,,0.00,132,Wunderground v.1.15,2013-06-21 02:20:00,
2013-06-20 20:28:00,56.8,36.8,29.91,NE,43,15.0,16.0,47,0.00,,,0.00,116,Wunderground v.1.15,2013-06-21 02:28:00,
2013-06-20 20:34:00,56.4,37.5,29.91,NE,41,16.0,22.0,49,0.00,,,0.00,128,Wunderground v.1.15,2013-06-21 02:34:00,
2013-06-20 20:40:00,56.4,35.9,29.91,NE,46,16.0,16.0,46,0.00,,,0.00,93,Wunderground v.1.15,2013-06-21 02:40:00,
2013-06-20 20:46:00,56.4,36.9,29.91,NE,38,13.0,16.0,48,0.00,,,0.00,74,Wunderground v.1.15,2013-06-21 02:46:00,
2013-06-20 20:52:00,56.5,37.0,29.92,NE,39,10.0,14.0,48,0.00,,,0.00,74,Wunderground v.1.15,2013-06-21 02:52:00,
2013-06-20 20:58:00,56.6,39.2,29.92,NE,54,9.0,14.0,52,0.00,,,0.00,62,Wunderground v.1.15,2013-06-21 02:58:00,
2013-06-20 21:06:00,56.4,36.9,29.92,NE,41,13.0,17.0,48,0.00,,,0.00,37,Wunderground v.1.15,2013-06-21 03:06:00,
2013-06-20 21:12:00,56.2,37.3,29.92,NE,56,16.0,18.0,49,0.00,,,0.00,16,Wunderground v.1.15,2013-06-21 03:12:00,
2013-06-20 21:18:00,55.9,38.0,29.93,NE,42,17.0,18.0,51,0.00,,,0.00,0,Wunderground v.1.15,2013-06-21 03:18:00,
2013-06-20 21:24:00,55.7,37.8,29.94,NE,48,14.0,16.0,51,0.00,,,0.00,0,Wunderground v.1.15,2013-06-21 03:24:00,
2013-06-20 21:30:00,55.2,40.2,29.94,ENE,73,15.0,20.0,57,0.00,,,0.00,0,Wunderground v.1.15,2013-06-21 03:30:00,
2013-06-20 21:36:00,54.0,41.3,29.94,East,81,20.0,21.0,62,0.00,,,0.00,0,Wunderground v.1.15,2013-06-21 03:36:00,
2013-06-20 21:42:00,52.0,37.2,29.95,East,91,22.0,25.0,57,0.00,,,0.00,0,Wunderground v.1.15,2013-06-21 03:42:00,
2013-06-20 21:48:00,50.9,39.9,29.95,ESE,105,19.0,25.0,66,0.00,,,0.01,0,Wunderground v.1.15,2013-06-21 03:48:00,
2013-06-20 21:54:00,-999.9,-99.9,29.96,East,101,19.0,21.0,255,0.17,,,0.03,0,Wunderground v.1.15,2013-06-21 03:54:00,
2013-06-20 22:00:00,50.4,39.9,29.96,SE,145,17.0,17.0,67,0.09,,,0.03,0,Wunderground v.1.15,2013-06-21 04:00:00,
2013-06-20 22:02:00,50.5,38.8,29.97,SE,143,15.0,17.0,64,0.07,,,0.03,0,Wunderground v.1.15,2013-06-21 04:02:00,
2013-06-20 22:04:00,50.6,38.5,29.96,SE,143,13.0,17.0,63,0.06,,,0.04,0,Wunderground v.1.15,2013-06-21 04:04:00,
2013-06-20 22:06:00,50.7,39.0,29.96,SE,145,10.0,17.0,64,0.23,,,0.05,0,Wunderground v.1.15,2013-06-21 04:06:00,
2013-06-20 22:10:00,50.6,38.5,29.96,West,260,7.0,7.0,63,0.22,,,0.06,0,Wunderground v.1.15,2013-06-21 04:10:00,
2013-06-20 22:16:00,49.9,41.2,29.96,NNW,336,6.0,14.0,72,0.11,,,0.07,0,Wunderground v.1.15,2013-06-21 04:16:00,
2013-06-20 22:18:00,49.4,41.5,29.96,NNW,329,6.0,14.0,74,0.08,,,0.07,0,Wunderground v.1.15,2013-06-21 04:18:00,
2013-06-20 22:24:00,48.1,40.9,29.96,NW,321,11.0,16.0,76,0.04,,,0.07,0,Wunderground v.1.15,2013-06-21 04:24:00,
2013-06-20 22:30:00,47.9,40.7,29.96,NNW,333,13.0,13.0,76,0.00,,,0.07,0,Wunderground v.1.15,2013-06-21 04:30:00,
2013-06-20 22:36:00,47.9,41.0,29.96,NW,312,10.0,14.0,77,0.00,,,0.07,0,Wunderground v.1.15,2013-06-21 04:36:00,
2013-06-20 22:42:00,47.9,41.4,29.97,West,275,8.0,14.0,78,0.00,,,0.07,0,Wunderground v.1.15,2013-06-21 04:42:00,
2013-06-20 22:48:00,47.9,41.0,29.97,WNW,291,5.0,14.0,77,0.00,,,0.07,0,Wunderground v.1.15,2013-06-21 04:48:00,
2013-06-20 22:54:00,47.9,41.0,29.97,WNW,296,2.0,14.0,77,0.00,,,0.07,0,Wunderground v.1.15,2013-06-21 04:54:00,
2013-06-20 23:00:00,47.9,40.7,29.98,West,275,4.0,4.0,76,0.00,,,0.07,0,Wunderground v.1.15,2013-06-21 05:00:00,
2013-06-20 23:06:00,48.1,41.9,29.98,SSW,201,4.0,14.0,79,0.00,,,0.07,0,Wunderground v.1.15,2013-06-21 05:06:00,
2013-06-20 23:12:00,48.0,41.5,29.99,SSW,198,7.0,7.0,78,0.00,,,0.07,0,Wunderground v.1.15,2013-06-21 05:12:00,
2013-06-20 23:20:00,47.8,41.9,29.99,NW,308,5.0,14.0,80,0.00,,,0.07,0,Wunderground v.1.15,2013-06-21 05:20:00,
2013-06-20 23:26:00,48.0,40.8,29.99,WSW,243,5.0,14.0,76,0.00,,,0.07,0,Wunderground v.1.15,2013-06-21 05:26:00,
2013-06-20 23:32:00,48.2,41.7,29.98,SW,233,8.0,14.0,78,0.00,,,0.07,0,Wunderground v.1.15,2013-06-21 05:32:00,
2013-06-20 23:38:00,48.1,41.6,29.98,WSW,252,9.0,14.0,78,0.00,,,0.07,0,Wunderground v.1.15,2013-06-21 05:38:00,
2013-06-20 23:44:00,48.2,41.0,29.98,WSW,242,10.0,14.0,76,0.00,,,0.07,0,Wunderground v.1.15,2013-06-21 05:44:00,
2013-06-20 23:50:00,48.3,41.4,29.97,WSW,241,10.0,14.0,77,0.00,,,0.07,0,Wunderground v.1.15,2013-06-21 05:50:00,
2013-06-20 23:56:00,48.2,40.6,29.98,WSW,256,10.0,14.0,75,0.00,,,0.07,0,Wunderground v.1.15,2013-06-21 05:56:00,